TimeCDT,TemperatureF,Dew PointF,Humidity,Sea Level PressureIn,VisibilityMPH,Wind Direction,Wind SpeedMPH,Gust SpeedMPH,PrecipitationIn,Events,Conditions,WindDirDegrees,DateUTC
12:09 AM,32.2,30.2,92,30.24,10.0,NE,8.1,-,N/A,,Overcast,50,2013-05-04 05:09:00
12:30 AM,32.2,30.2,92,30.24,10.0,NE,5.8,-,N/A,,Overcast,50,2013-05-04 05:30:00
12:49 AM,32.2,30.2,92,30.24,10.0,NNE,5.8,-,N/A,,Overcast,30,2013-05-04 05:49:00
1:09 AM,32.2,30.2,92,30.24,10.0,NE,4.6,-,N/A,,Overcast,50,2013-05-04 06:09:00
1:30 AM,32.2,30.2,92,30.23,10.0,NE,6.9,-,N/A,,Overcast,40,2013-05-04 06:30:00
1:49 AM,32.2,30.6,94,30.22,7.0,NE,5.8,-,N/A,,Overcast,50,2013-05-04 06:49:00
2:09 AM,32.2,30.7,94,30.22,7.0,NE,4.6,-,N/A,,Overcast,50,2013-05-04 07:09:00
2:30 AM,32.2,30.7,94,30.21,7.0,NE,5.8,-,N/A,,Overcast,50,2013-05-04 07:30:00
2:49 AM,32.2,30.7,94,30.22,10.0,NE,6.9,-,N/A,,Overcast,50,2013-05-04 07:49:00
3:10 AM,32.2,30.2,92,30.22,10.0,ENE,4.6,-,N/A,,Overcast,60,2013-05-04 08:10:00
3:29 AM,32.2,30.2,92,30.22,10.0,NE,4.6,-,N/A,,Overcast,50,2013-05-04 08:29:00
3:49 AM,32.2,30.6,94,30.22,10.0,NE,4.6,-,N/A,,Overcast,40,2013-05-04 08:49:00
4:10 AM,32.2,30.6,94,30.21,10.0,NNE,4.6,-,N/A,,Overcast,20,2013-05-04 09:10:00
4:29 AM,32.2,30.7,94,30.21,10.0,North,3.5,-,N/A,,Overcast,10,2013-05-04 09:29:00
4:49 AM,32.2,30.6,94,30.21,10.0,NE,6.9,-,0.01,,Overcast,40,2013-05-04 09:49:00
5:10 AM,32.2,30.6,94,30.22,10.0,NE,6.9,-,N/A,,Overcast,40,2013-05-04 10:10:00
5:29 AM,32.2,30.6,94,30.22,10.0,NE,3.5,-,N/A,,Overcast,40,2013-05-04 10:29:00
5:49 AM,32.2,30.7,94,30.21,10.0,NNE,4.6,-,N/A,,Overcast,30,2013-05-04 10:49:00
6:10 AM,32.2,30.6,94,30.22,10.0,NNE,6.9,-,N/A,,Overcast,30,2013-05-04 11:10:00
6:29 AM,32.2,30.2,92,30.22,10.0,NE,4.6,-,N/A,,Overcast,50,2013-05-04 11:29:00
6:49 AM,32.2,30.6,94,30.22,10.0,NE,4.6,-,N/A,,Overcast,50,2013-05-04 11:49:00
7:10 AM,32.2,30.6,94,30.23,10.0,NE,5.8,-,N/A,,Overcast,40,2013-05-04 12:10:00
7:29 AM,32.2,30.0,92,30.23,10.0,NE,8.1,-,N/A,,Overcast,40,2013-05-04 12:29:00
7:49 AM,32.2,30.0,92,30.22,10.0,NE,8.1,-,N/A,,Overcast,50,2013-05-04 12:49:00
8:09 AM,32.2,30.0,92,30.22,10.0,NE,8.1,-,N/A,,Overcast,40,2013-05-04 13:09:00
8:30 AM,32.2,30.0,92,30.22,10.0,NNE,8.1,-,N/A,,Overcast,30,2013-05-04 13:30:00
8:49 AM,32.2,30.0,92,30.23,10.0,NNE,6.9,-,N/A,,Overcast,20,2013-05-04 13:49:00
9:09 AM,32.5,30.7,93,30.22,10.0,NNE,6.9,-,N/A,,Overcast,30,2013-05-04 14:09:00
9:30 AM,32.7,30.4,91,30.23,10.0,NE,5.8,-,N/A,,Overcast,40,2013-05-04 14:30:00
9:49 AM,33.3,31.3,92,30.23,10.0,NNE,6.9,-,N/A,,Overcast,20,2013-05-04 14:49:00
10:09 AM,34.2,32.0,92,30.23,2.5,NE,5.8,-,N/A,,Overcast,40,2013-05-04 15:09:00
10:30 AM,34.9,32.9,92,30.23,7.0,NE,8.1,-,N/A,,Overcast,40,2013-05-04 15:30:00
10:49 AM,34.9,32.4,91,30.23,10.0,NE,8.1,-,N/A,,Overcast,50,2013-05-04 15:49:00
11:09 AM,34.9,32.0,89,30.24,10.0,NE,6.9,-,N/A,,Overcast,50,2013-05-04 16:09:00
11:30 AM,34.9,32.2,90,30.24,10.0,NE,4.6,-,N/A,,Drizzle,50,2013-05-04 16:30:00
11:49 AM,34.9,32.4,91,30.24,4.0,NE,6.9,-,N/A,Rain,Light Rain,40,2013-05-04 16:49:00
12:09 PM,34.9,32.5,91,30.24,5.0,NE,5.8,-,N/A,Rain,Light Rain,40,2013-05-04 17:09:00
12:35 PM,36.1,34.2,93,30.24,4.0,NE,5.8,-,0.02,Rain,Light Rain,50,2013-05-04 17:35:00
12:49 PM,37.4,35.2,92,30.24,10.0,NE,8.1,-,0.03,,Light Drizzle,40,2013-05-04 17:49:00
1:09 PM,37.4,35.1,91,30.24,10.0,NE,5.8,-,N/A,,Drizzle,40,2013-05-04 18:09:00
1:30 PM,37.4,35.1,91,30.24,10.0,NE,8.1,-,N/A,Rain,Light Rain,50,2013-05-04 18:30:00
1:49 PM,37.4,35.1,91,30.24,7.0,NE,5.8,-,0.01,,Drizzle,50,2013-05-04 18:49:00
2:09 PM,37.4,34.9,91,30.24,10.0,NE,5.8,-,N/A,,Light Drizzle,50,2013-05-04 19:09:00
2:29 PM,37.4,34.7,90,30.23,10.0,NNE,8.1,-,N/A,,Overcast,30,2013-05-04 19:29:00
2:49 PM,37.4,35.1,91,30.24,5.0,NE,6.9,-,N/A,Rain,Rain,50,2013-05-04 19:49:00
3:09 PM,37.4,35.2,92,30.23,10.0,NNE,5.8,-,N/A,,Light Drizzle,30,2013-05-04 20:09:00
3:29 PM,37.4,35.1,91,30.23,10.0,NNE,8.1,-,N/A,,Overcast,30,2013-05-04 20:29:00
3:50 PM,37.4,35.2,92,30.23,10.0,NNE,6.9,-,N/A,,Overcast,20,2013-05-04 20:50:00
4:09 PM,37.4,35.2,92,30.23,10.0,NNE,8.1,-,N/A,,Overcast,30,2013-05-04 21:09:00
4:29 PM,37.4,34.7,90,30.23,10.0,NNE,5.8,-,N/A,,Overcast,20,2013-05-04 21:29:00
4:50 PM,37.4,35.1,91,30.23,10.0,NNE,6.9,-,N/A,,Overcast,20,2013-05-04 21:50:00
5:09 PM,37.4,34.7,90,30.23,10.0,NNE,8.1,-,N/A,,Overcast,20,2013-05-04 22:09:00
5:29 PM,37.4,34.9,91,30.22,10.0,NE,8.1,-,N/A,,Overcast,40,2013-05-04 22:29:00
5:50 PM,37.4,35.1,91,30.23,10.0,NNE,8.1,-,N/A,,Overcast,30,2013-05-04 22:50:00
6:09 PM,37.4,34.7,90,30.23,10.0,NNE,8.1,-,N/A,,Overcast,20,2013-05-04 23:09:00
6:30 PM,37.4,34.7,90,30.23,10.0,NE,5.8,-,N/A,,Overcast,50,2013-05-04 23:30:00
6:49 PM,37.4,34.7,90,30.23,10.0,NE,9.2,-,N/A,,Overcast,40,2013-05-04 23:49:00
7:09 PM,37.4,34.7,90,30.24,10.0,NE,5.8,-,N/A,,Overcast,50,2013-05-05 00:09:00
7:30 PM,37.4,34.7,90,30.24,10.0,ENE,5.8,-,N/A,,Overcast,60,2013-05-05 00:30:00
7:49 PM,37.4,34.9,91,30.24,10.0,NE,4.6,-,N/A,,Overcast,40,2013-05-05 00:49:00
8:09 PM,37.4,34.9,91,30.24,10.0,NE,6.9,-,N/A,,Overcast,50,2013-05-05 01:09:00
8:30 PM,37.4,34.7,90,30.25,10.0,Calm,Calm,-,N/A,,Overcast,0,2013-05-05 01:30:00
8:49 PM,37.4,34.7,90,30.25,10.0,Calm,Calm,-,N/A,,Overcast,0,2013-05-05 01:49:00
9:10 PM,37.4,34.7,90,30.25,10.0,Calm,Calm,-,N/A,,Overcast,0,2013-05-05 02:10:00
9:29 PM,37.4,34.7,90,30.25,10.0,NNE,3.5,-,N/A,,Overcast,30,2013-05-05 02:29:00
9:49 PM,37.4,34.7,90,30.25,10.0,NE,3.5,-,N/A,,Overcast,40,2013-05-05 02:49:00
10:10 PM,37.4,35.1,91,30.25,10.0,Calm,Calm,-,N/A,,Overcast,0,2013-05-05 03:10:00
10:29 PM,37.4,35.2,92,30.25,10.0,NE,4.6,-,N/A,,Overcast,50,2013-05-05 03:29:00
10:49 PM,37.4,35.2,92,30.25,10.0,NE,4.6,-,N/A,,Overcast,50,2013-05-05 03:49:00
11:10 PM,37.4,35.6,93,30.24,10.0,NE,5.8,-,N/A,,Overcast,40,2013-05-05 04:10:00
11:29 PM,37.4,35.6,93,30.24,10.0,NE,4.6,-,N/A,,Overcast,50,2013-05-05 04:29:00
11:49 PM,37.4,35.6,93,30.23,10.0,NE,4.6,-,N/A,,Overcast,40,2013-05-05 04:49:00